This demonstration page uses our WeatherBlox Daily Observations layout. Learn more.

Left ArrowRight Arrow

Hourly Observations for July 7, 2015

Temp ( °F °C ) Dew Point ( °F °C ) Humidity (%) Winds ( mph kmh ) Pressure ( in mb ) Visibility ( mi km ) Precip ( " mm )
12:53 am 00:53 Clear 78 25.6 57 13.9 48 48 N 3 6 29.89 1012 10 16 0.00 0.00
1:53 am 01:53 Clear 76 24.4 58 14.4 54 54 Calm 29.89 1012 10 16 0.00 0.00
2:53 am 02:53 Clear 75 23.9 58 14.4 55 55 Calm 29.88 1012 10 16 0.00 0.00
3:53 am 03:53 Clear 73 22.8 60 15.6 64 64 W 5 7 29.90 1012 10 16 0.00 0.00
4:53 am 04:53 Clear 74 23.3 59 15 60 60 Calm 29.90 1012 10 16 0.00 0.00
5:53 am 05:53 Sunny 71 21.7 58 14.4 63 63 ENE 3 6 29.91 1013 10 16 0.00 0.00
6:53 am 06:53 Sunny 74 23.3 56 13.3 54 54 S 6 9 29.92 1013 10 16 0.00 0.00
7:53 am 07:53 Sunny 76 24.4 55 12.8 48 48 S 7 11 29.93 1014 10 16 0.00 0.00
8:53 am 08:53 Sunny 77 25 56 13.3 48 48 S 10 17 29.93 1014 10 16 0.00 0.00
9:53 am 09:53 Sunny 80 26.7 56 13.3 44 44 S 6 9 29.92 1013 10 16 0.00 0.00
10:53 am 10:53 Sunny 83 28.3 55 12.8 38 38 S 8 13 29.91 1013 10 16 0.00 0.00
11:53 am 11:53 Sunny 86 30 57 13.9 37 37 VRB 5 7 29.90 1012 10 16 0.00 0.00
12:53 pm 12:53 Sunny 90 32.2 57 13.9 33 33 SSW 9 15 29.87 1012 10 16 0.00 0.00
1:53 pm 13:53 Sunny 92 33.3 56 13.3 30 30 S 10 17 29.83 1010 10 16 0.00 0.00
2:53 pm 14:53 Sunny 94 34.4 54 12.2 26 26 SE 9 15 29.79 1009 10 16 0.00 0.00
3:53 pm 15:53 Sunny 97 36.1 53 11.7 23 23 SE 9 15 29.77 1008 10 16 0.00 0.00
4:53 pm 16:53 Sunny 95 35 51 10.6 23 23 SSE 14 22 29.77 1008 10 16 0.00 0.00
5:53 pm 17:53 Sunny 92 33.3 53 11.7 27 27 SSE 16 26 29.77 1008 10 16 0.00 0.00
6:53 pm 18:53 Sunny 90 32.2 52 11.1 27 27 SSW 9 15 29.78 1008 10 16 0.00 0.00
7:53 pm 19:53 Sunny 88 31.1 52 11.1 29 29 WSW 7 11 29.78 1008 10 16 0.00 0.00
8:53 pm 20:53 Partly Cloudy 86 30 51 10.6 30 30 W 5 7 29.77 1008 10 16 0.00 0.00
9:53 pm 21:53 Clear 84 28.9 51 10.6 32 32 E 3 6 29.80 1009 10 16 0.00 0.00
10:53 pm 22:53 Clear 80 26.7 52 11.1 38 38 NNE 3 6 29.81 1010 10 16 0.00 0.00
11:53 pm 23:53 Clear 81 27.2 52 11.1 37 37 NNE 3 6 29.81 1010 10 16 0.00 0.00

Powered by AerisWeather